Weather in Fuxin

China     42°02′02″N   121°41′00″E
temp.,
°C
wind,
m/s
gust,
m/s
humid.,
%
clouds,
%
prec.,
mm/h
press.,
hPa
HPBL,
m
18 may, tue
tue1823:00+21ssw312190 0.0 1005376
02:00+19s22260 0.0 100443
05:00+17sw25330 0.0 1004142
08:00+23sw352370 0.0 1004294
11:00+29sw57160 0.0 10031616
14:00+32s781187 0.0 10004307
17:00+29ssw7111815 0.0 10001950
20:00+24ssw71430100 0.0 1001507
19 may, wed
wed1923:00+21sw3124015 0.1 1003467
02:00+20sw3114222 0.1 1003381
05:00+18sw274665 0.0 1003206
08:00+23sw35330 0.0 1004383
11:00+29ssw34200 0.0 10041228
14:00+32s58150 0.0 10023612
17:00+30s711190 0.0 10011525
20:00+25ssw617305 0.0 1004749
20 may, thu
thu2023:00+23ssw717317 0.0 1005956
02:00+21sw51438100 0.0 1005613
05:00+19s31347100 0.0 1006407
08:00+22ssw51142100 0.0 1007594
11:00+25ssw61028100 0.0 1007908
14:00+25ssw6827100 0.0 10061119
17:00+23ssw5933100 0.0 1006781
20:00+20ssw31036100 0.0 1007471
21 may, fri
fri2123:00+19ssw41247100 0.0 1007445
02:00+17sw31154100 0.0 1006337
05:00+17sw265787 0.0 1006183
08:00+22ssw34448 0.0 1005414
11:00+27sw442586 0.0 10041523
14:00+29ssw3320100 0.0 10032599
17:00+29s44220 0.0 10022473
20:00+23s36384 0.0 1004365
22 may, sat
sat2223:00+21sw411454 0.0 1005334
02:00+19sw39530 0.0 1004258
05:00+19ssw310565 0.0 1005316
08:00+23ssw51242100 0.0 1004613
11:00+29ssw710320 0.0 10031545
14:00+31s8103118 0.0 10011766
17:00+28s71237100 0.0 1000875
20:00+23nnw355998 0.8 1005332